Regional Weather Roundup
Issued by NWS Sioux Falls, SD

Home | Current Version | Previous Version | Graphics & Text | Print | Product List | Glossary Off
Versions: 1 2 3 4 5 6 7 8 9 10 11 12 13 14 15 16 17 18 19 20 21 22 23 24 25 26 27 28 29 30 31 32 33 34 35 36 37 38 39 40 41 42 43 44 45 46 47 48 49 50

000
ASUS43 KFSD 251310
RWRFSD

WEATHER ROUNDUP FOR SE SOUTH DAKOTA/SW MINNESOTA/NW IOWA
NATIONAL WEATHER SERVICE SIOUX FALLS SD
800 AM CDT WED MAY 25 2016

NOTE: "FAIR" INDICATES FEW OR NO CLOUDS BELOW 12,000 FEET WITH NO
SIGNIFICANT WEATHER AND OR OBSTRUCTIONS TO VISIBILITY.


SDZ038>040-050-052>070-251400-
SOUTHEAST SOUTH DAKOTA

CITY           SKY/WX    TMP DP  RH WIND       PRES   REMARKS
BROOKINGS      CLOUDY    61  58  90 SE14      29.77R
CHAMBERLAIN    MOSUNNY   61  60  97 W7        29.79S
HURON          CLOUDY    60  58  92 MISG      29.74R
MADISON        PTSUNNY   59  59 100 S17       29.80S
MITCHELL       CLOUDY    63  61  93 SW8       29.76S
SIOUX FALLS    CLOUDY    63  58  83 S10       29.82S
WINNER         CLOUDY    60  56  86 W3        29.81R
YANKTON        CLOUDY    61  57  88 S6        29.80F
$$

MNZ071-072-080-081-089-090-097-098-251400-
SOUTHWEST MINNESOTA

CITY           SKY/WX    TMP DP  RH WIND       PRES   REMARKS
FAIRMONT       CLOUDY    64  57  77 S12       29.89S
JACKSON        LGT RAIN  64  61  88 SE8       29.89S
LUVERNE        CLOUDY    63  61  94 S10       29.82F
MARSHALL       LGT RAIN  64  62  93 SE14      29.81F
MONTEVIDEO     TSTM      64  63  94 S9G16     29.86R
PIPESTONE      CLOUDY    63  61  94 S10       29.81S
REDWOOD FALLS  TSTM      63  59  87 SW22G31   29.87R VSB 1
TRACY          CLOUDY    64  61  88 SE10      29.84F
WINDOM         LGT RAIN  64  63  94 S7        29.88S
WORTHINGTON    LGT RAIN  65  59  81 SE10      29.84F
$$

IAZ001>003-012>014-020>022-031-032-NEZ013-014-SDZ071-251400-
NORTHWEST IOWA

CITY           SKY/WX    TMP DP  RH WIND       PRES   REMARKS
CHEROKEE       CLOUDY    64  63  96 S3        29.87R
DENISON        CLOUDY    64  63  94 VRB5G13   29.87R
ESTHERVILLE    LGT RAIN  64  63  96 S6        29.90R FOG
LE MARS        CLOUDY    66  61  82 SE12      29.84F
ORANGE CITY    LGT RAIN  64  63  94 CALM      29.84S
SHELDON        PTSUNNY   64  63  94 SE14      29.83R
SIOUX CITY     CLOUDY    66  60  81 VRB3      29.85R
SPENCER        CLOUDY    65  61  87 E12       29.86F
STORM LAKE     CLOUDY    64  61  88 SE13      29.88S
$$

ABBREVIATIONS USED IN REMARKS
   TC - TEMPERATURE IN CELSIUS
  WCI - WIND CHILL INDEX
   HX - HEAT INDEX
  VSB - VISIBILITY





USA.gov is the U.S. government's official web portal to all federal, state and local government web resources and services.